Melbourne Airport, Australia

10:06 PM AEST on August 17, 2017 (GMT +1000)
Melbourne International

Weather History for YMML - October, 2012

Change the Weather History Date:

Friday, October 19, 2012

  Actual Average Record
Temperature  
Mean Temperature 65 °F -  
Max Temperature 81 °F 67 °F 82 °F (2011)
Min Temperature 49 °F 47 °F 37 °F (2016)
Growing Degree Days 15 (Base 50)    
Moisture  
Dew Point 47 °F    
Average Humidity 60    
Maximum Humidity 88    
Minimum Humidity 18    
Precipitation  
Precipitation 0.02 in 0.08 in - ()
Sea Level Pressure  
Sea Level Pressure 29.88 in    
Wind  
Wind Speed 10 mph ()    
Max Wind Speed 26 mph    
Max Gust Speed 32 mph    
Visibility 9.1 miles    
Events Rain , Thunderstorm    
Averages and records for this station are not official NWS values.
T = Trace of Precipitation, MM = Missing Value Source: Averaged Metar Reports

Daily Weather History Graph

Daily Weather History Graph

Search for Another Location

Airport or City:

Trip Planner

Search our weather history database for the weather conditions in past years. The results will help you decide how hot, cold, wet, or windy it might be!

Date:

Astronomy

Oct. 19, 2012 Rise Set
Actual Time 6:30 AM AEDT 7:41 PM AEDT
Civil Twilight 6:03 AM AEDT 8:08 PM AEDT
Nautical Twilight 5:30 AM AEDT 8:41 PM AEDT
Astronomical Twilight 4:57 AM AEDT 9:15 PM AEDT
Moon 9:09 AM AEDT (10/19) No Moon Set
Length of Visible Light 14h 05m
Length of Day
13h 11m
Waxing Crescent, 17% of the Moon is Illuminated
Oct 19
Waxing Crescent
Oct 22
First Quarter
Oct 30
Full
Nov 7
Last Quarter
Nov 14
New

Hourly Weather History & Observations

Time (AEDT) Temp. Dew Point Humidity Pressure Visibility Wind Dir Wind Speed Gust Speed Precip Events Conditions
12:00 AM 50 °F 45 °F 78% 30.02 in 16 mi North 6.9 mph - -   Haze
12:00 AM 50.0 °F 44.6 °F 82% 30.01 in - North 6.9 mph - N/A   Clear
12:30 AM 50.0 °F 44.6 °F 82% 30.01 in - North 8.1 mph - N/A   Clear
1:00 AM 50.0 °F 44.6 °F 82% 30.01 in - North 8.1 mph - N/A   Clear
1:30 AM 50.0 °F 46.4 °F 87% 30.01 in - North 8.1 mph - N/A   Clear
2:00 AM 49 °F 46 °F 84% 30.00 in - West 4.6 mph - -  
2:00 AM 50.0 °F 46.4 °F 87% 29.98 in - West 4.6 mph - N/A   Clear
2:30 AM 50.0 °F 46.4 °F 87% 29.98 in - North 5.8 mph - N/A   Clear
3:00 AM 49 °F 45 °F 83% 29.98 in 16 mi North 5.8 mph - -   Haze
3:00 AM 50.0 °F 44.6 °F 82% 29.98 in - North 5.8 mph - N/A   Clear
3:30 AM 50.0 °F 44.6 °F 82% 29.95 in - North 11.5 mph - N/A   Clear
4:00 AM 53.6 °F 44.6 °F 72% 29.92 in - North 9.2 mph - N/A   Clear
4:30 AM 57.2 °F 46.4 °F 67% 29.92 in - NNE 9.2 mph - N/A   Clear
5:00 AM 57 °F 46 °F 58% 29.91 in - North 9.2 mph - -  
5:00 AM 57.2 °F 46.4 °F 67% 29.92 in - North 9.2 mph - N/A   Clear
5:30 AM 57.2 °F 44.6 °F 63% 29.92 in - North 10.4 mph - N/A   Clear
6:00 AM 58 °F 46 °F 54% 29.92 in 19 mi North 8.1 mph - -   Partly Cloudy
6:00 AM 57.2 °F 46.4 °F 67% 29.92 in - North 8.1 mph - N/A   Clear
6:30 AM 59.0 °F 46.4 °F 63% 29.92 in 5.6 mi North 17.3 mph - N/A Rain Light Rain
7:00 AM 59.0 °F 48.2 °F 67% 29.92 in 6.2 mi North 15.0 mph - N/A Rain Light Rain
7:30 AM 57.2 °F 51.8 °F 82% 29.89 in 6.2 mi North 11.5 mph - N/A   Unknown
8:00 AM 59 °F 49 °F 62% 29.92 in - North 15.0 mph - -  
8:00 AM 59.0 °F 50.0 °F 72% 29.92 in 5.6 mi North 15.0 mph - N/A Rain Light Rain Showers
8:30 AM 57.2 °F 51.8 °F 82% 29.89 in 6.2 mi North 17.3 mph - N/A   Unknown
8:39 AM 57.2 °F 50.0 °F 77% 29.89 in 6.2 mi North 18.4 mph - N/A Rain , Thunderstorm Light Thunderstorms and Rain
9:00 AM 57 °F 51 °F 72% 29.90 in 16 mi North 12.7 mph - - Rain , Thunderstorm Thunderstorms and Rain
9:00 AM 57.2 °F 50.0 °F 77% 29.89 in 6.2 mi North 12.7 mph - N/A Rain , Thunderstorm Light Thunderstorms and Rain
9:20 AM 57.2 °F 51.8 °F 82% 29.89 in 6.2 mi North 16.1 mph - N/A Thunderstorm Mostly Cloudy
9:30 AM 59.0 °F 51.8 °F 77% 29.89 in - North 12.7 mph - N/A   Clear
10:00 AM 60.8 °F 50.0 °F 68% 29.89 in - North 10.4 mph - N/A   Clear
10:30 AM 62.6 °F 50.0 °F 63% 29.89 in - NNE 13.8 mph - N/A   Clear
11:00 AM 66.2 °F 50.0 °F 56% 29.89 in - NNE 20.7 mph - N/A   Clear
11:30 AM 68.0 °F 48.2 °F 49% 29.86 in - North 23.0 mph - N/A   Clear
11:53 AM 69.8 °F 50.0 °F 49% 29.86 in - North 20.7 mph 32.2 mph N/A   Clear
12:00 PM 69.8 °F 48.2 °F 46% 29.83 in - North 19.6 mph - N/A   Clear
12:30 PM 73.4 °F 48.2 °F 41% 29.83 in - North 24.2 mph - N/A   Clear
1:00 PM 75.2 °F 46.4 °F 36% 29.80 in - North 26.5 mph - N/A   Clear
1:30 PM 77.0 °F 46.4 °F 34% 29.80 in - North 23.0 mph - N/A   Clear
2:00 PM 78 °F 48 °F 24% 29.81 in - North 18.4 mph - -  
2:00 PM 78.8 °F 48.2 °F 34% 29.80 in - North 18.4 mph - N/A   Clear
2:30 PM 78.8 °F 44.6 °F 30% 29.77 in - NNW 15.0 mph - N/A   Clear
3:00 PM 81 °F 45 °F 18% 29.79 in 25 mi WNW 13.8 mph - -   Partly Cloudy
3:00 PM 80.6 °F 44.6 °F 28% 29.77 in - WNW 13.8 mph - N/A   Clear
3:30 PM 80.6 °F 44.6 °F 28% 29.77 in - NW 16.1 mph - N/A   Clear
4:00 PM 80.6 °F 44.6 °F 28% 29.77 in - WNW 10.4 mph - N/A   Clear
4:30 PM 80.6 °F 44.6 °F 28% 29.77 in - WNW 12.7 mph - N/A   Clear
5:00 PM 80 °F 44 °F 18% 29.78 in - WSW 12.7 mph - -  
5:00 PM 80.6 °F 44.6 °F 28% 29.77 in - WSW 12.7 mph - N/A   Clear
5:30 PM 80.6 °F 44.6 °F 28% 29.77 in - SW 15.0 mph - N/A   Clear
6:00 PM 78 °F 47 °F 23% 29.79 in 25 mi SSW 12.7 mph - -   Partly Cloudy
6:00 PM 78.8 °F 48.2 °F 34% 29.77 in - SSW 12.7 mph - N/A   Clear
6:30 PM 75.2 °F 50.0 °F 41% 29.80 in - South 15.0 mph - N/A   Clear
7:00 PM 69.8 °F 51.8 °F 53% 29.80 in - South 13.8 mph - N/A   Clear
7:30 PM 66.2 °F 51.8 °F 60% 29.83 in - South 11.5 mph - N/A   Clear
8:00 PM 63 °F 47 °F 45% 29.86 in - South 12.7 mph - -  
8:00 PM 62.6 °F 46.4 °F 55% 29.86 in - South 12.7 mph - N/A   Clear
8:30 PM 60.8 °F 48.2 °F 63% 29.86 in - South 6.9 mph - N/A   Clear
9:00 PM 59 °F 47 °F 56% 29.89 in 25 mi South 9.2 mph - -   Partly Cloudy
9:00 PM 59.0 °F 48.2 °F 67% 29.89 in - South 9.2 mph - N/A   Clear
9:30 PM 55.4 °F 48.2 °F 77% 29.89 in - SSE 9.2 mph - N/A   Clear
10:00 PM 55.4 °F 48.2 °F 77% 29.89 in - SSE 9.2 mph - N/A   Clear
10:30 PM 53.6 °F 48.2 °F 82% 29.92 in - SSE 9.2 mph - N/A   Clear
11:00 PM 54 °F 49 °F 79% 29.92 in - South 8.1 mph - -  
11:00 PM 53.6 °F 50.0 °F 88% 29.92 in 6.2 mi South 8.1 mph - N/A   Scattered Clouds
11:30 PM 53.6 °F 50.0 °F 88% 29.92 in 6.2 mi SSE 8.1 mph - N/A   Mostly Cloudy